Location: Arroyo Retuerta
(40.5469°N, 4.3534°W)
Time: 11:29:53
(UTC+00:00)

Cosmos 304 Rocket - Pass Details

Date: 01 June 2020
Orbit: 679 x 688 km, 74.0° (Epoch: 05 July)

Event Time Altitude Azimuth Distance (km) Brightness Sun altitude
Exits shadow 21:07:33 - 194° (SSW) 2,889 6.7 -13.6°
Reaches altitude 10° 21:09:30 10° 193° (SSW) 2,110 6.0 -13.8°
Maximum altitude 21:14:15 78° 107° (ESE) 700 3.7 -14.4°
Drops below altitude 10° 21:19:02 10° 22° (NNE) 2,129 6.6 -15.0°
Sets 21:21:21 0° 21° (NNE) 3,050 7.5 -15.3°
